Overview Statistics Trail Chart Weather Telemetry Raw packets
 

This is the latest recevied weather packets stored in our database for station/object CW79215. If no packets are shown the sender has not sent any weather packets the latest 10 day(s).

<< 1 2 3 4 5 6 7 >>
Time Temp. Humidity Pressure Rain* Wind** Luminosity Snow
1788637846 18.89° C 65% 1035.2 hPa - - - -
1788636946 18.33° C 66% 1035 hPa - - - -
1788636046 18.89° C 63% 1034.9 hPa - - - -
1788635146 18.89° C 63% 1034.8 hPa - - - -
1788634246 19.44° C 60% 1034.6 hPa - - - -
1788633345 20° C 59% 1034.4 hPa - - - -
1788632445 20° C 60% 1034.1 hPa - - - -
1788631545 20.56° C 58% 1034.1 hPa - - - -
1788630645 21.11° C 55% 1033.9 hPa - - - -
1788629745 21.67° C 54% 1033.7 hPa - - - -
1788628845 22.22° C 52% 1033.7 hPa - - - -
1788627945 22.78° C 48% 1033.6 hPa - - - -
1788627045 23.33° C 46% 1033.6 hPa - - - -
1788626144 23.89° C 45% 1033.5 hPa - - - -
1788625244 24.44° C 43% 1033.4 hPa - - - -
1788624344 24.44° C 43% 1033.2 hPa - - - -
1788623443 25° C 43% 1033.2 hPa - - - -
1788622543 25° C 42% 1033.2 hPa - - - -
1788621643 25° C 44% 1033.2 hPa - - - -
1788620743 25.56° C 43% 1033.2 hPa - - - -
1788619843 25° C 44% 1033.2 hPa - - - -
1788618945 25.56° C 45% 1033.3 hPa - - - -
1788618045 25.56° C 44% 1033.4 hPa - - - -
1788617145 25° C 46% 1033.4 hPa - - - -
1788616245 25° C 47% 1033.3 hPa - - - -

* Rain since midnight (hover to see other rain measurements)
** Current wind speed in m/s (hover to see current wind gust speed)